NOAA 16 DEB, 41085

Orbit data source: Space-Track

NOAA 16 DEB, 41085 is space debris in SSO originally from a launch on Thu, 21 Sep 2000 UTC launched from the Air Force Western Test Range (AFWTR). Debris objects in space refer to the collection of defunct objects orbiting the Earth. Examples of debris include non-operational satellites, rocket bodies, and fragments generated from explosions, collisions, or faulty payload assembly.

Loading next visibility...
Identifier
41085, 2000-055AU
Orbit
SSO
Country
Flag of USUS
Related business
Manufacturer
Unknown
Mission
Spacecraft
Bus & Motor
Unknown
Mass
Unknown
Launch date (UTC)
Icon of a cake. It is the launch day of the satellite!2000-09-21 (26 years ago)
Launch vehicle
Unknown
Launch site
Air Force Western Test Range (AFWTR)
Object type
Payload
Rocket body
Debris
Shape & HBR
Unknown shape, 0.1 m
Radar Cross Section
Medium (>0.1 m² and <1 m²)

Expand to show TLE details & history
Last TLE update: 11 hours ago

TLE from 11 hours ago
0 NOAA 16 DEB
1 41085U 00055AU  26264.22135149  .00000699  00000-0  32240-3 0  9993
2 41085  98.6988 352.7123 0018656 329.1571  30.8510 14.24084482559930
Epoch: 2026-09-21T05:18Z
TLE epoch observation values (Epoch: 2026-09-21T05:18:44.768Z)
Latitude
-0.00008°
Longitude
-87.07851°
Altitude
802.982 km
Speed
7.458 km/s
True Right ascension
23h 30m 50s
True Declination
0° 00' 00"
Sunlit
Object was in full shadow at epoch
Visualization orbit readout
Latitude
Unknown
Longitude
Unknown
Altitude
Unknown
Speed
Unknown
Apparent Right ascension
Unknown
Apparent Declination
Unknown
Sunlit
N/A
Visualization observer readout
Local Sidereal Time
09:15:19
Azimuth
Unknown
Elevation
Unknown
Doppler factor
Unknown
Orbital elements
Apogee altitude
822.133 km
Perigee altitude
795.317 km
Semi-major axis
7,186.862 km
Eccentricity
0.00187
Inclination
98.6988°
RAAN
352.7123°
Arg. of periapsis
329.1571°
True anomaly
30.96085°
Mean anomaly
30.851°
Eccentric anomaly
30.9059°
Mean motion
3.56233 °/min
Orbital period
101.06 mins
BSTAR
0.0003224
Loading maneuver chart data...
Computing Atmospheric mass density...

Documentation

Showing up to 5 results
|